ヘリン-ローレンス彗星

152P/Helin-Lawrence (2022)

English version
Home page
Updated on July 18, 2021

---------------------------------------------------------------------

・ プロフィール

・ 写真集

・ 軌道要素

Epoch 2021 July 5.0 TT = JDT 2459400.5
T 2022 Jan. 13.53570 TT                                 Rudenko
q   3.0950388            (2000.0)            P               Q
n   0.10401365     Peri.  163.91169     -0.24166466     +0.95508533
a   4.4779149      Node    91.86083     -0.90813224     -0.16033690
e   0.3088214      Incl.    9.87996     -0.34189767     -0.24920692
P   9.48
From 979 observations 1993 Apr. 22-2021 June 29, mean residual 0".9.
     Nongravitational parameters A1 = +0.05, A2 = +0.0151.

・ 星図

・ 光度変化

        m1 = 3.5 + 5 logΔ + 22.0 log r(t - 100)

---------------------------------------------------------------------

軌道要素はM.P.E.C. 2021-N06に掲載されたものです。
星図はステラナビゲータ Ver.10 (アストロアーツ) で作成したものです。
光度グラフはComet for Windowsで作成したものです。

---------------------------------------------------------------------

Copyright(C) Seiichi Yoshida (comet@aerith.net). All rights reserved.